Home   Weather   Jamestown   Past weeks

Flag for Saint Helena Past Weather in Jamestown, Saint Helena — Yesterday and Last 2 Weeks

Now
62 °F

Cool.


Feels Like: 62 °F
Forecast: 69 / 72 °F
Wind: 18 mph from Southeast

Location: Saint Helena Island

Current Time: Dec 3, 2016 at 2:27:56 am

Latest Report: Dec 3, 2016 at 1:00 am


Visibility: N/A

Pressure: 30.03 "Hg

Humidity: 92%

Dew Point: 59 °F

Location of JamestownLocation

Past Weather in Jamestown — Graph

°F

Jamestown Temperature Yesterday

Maximum temperature yesterday: 67 °F (at 1:00 pm)
Minimum temperature yesterday: 61 °F (at 5:00 am)
Average temperature yesterday: 63 °F

High & Low Weather Summary for the Past Weeks

 TemperatureHumidityPressure
High69 °F (Nov 25, 1:00 pm)100% (Nov 18, 4:00 am)30.11 "Hg (Nov 18, 4:00 am)
Low59 °F (Nov 22, 1:00 am)64% (Nov 28, 1:00 pm)29.89 "Hg (Nov 21, 4:00 pm)
Average63 °F86%30.01 "Hg
* Reported Nov 18 1:00 am — Dec 3 12:00 am, Jamestown, Weather by CustomWeather, © 2016

Note: Actual official high and low records may vary slightly from our data, if they occured in-between our weather recording intervals... More about our weather records

Advertising

Jamestown Weather History for the Previous 24 Hours

Scroll right to see more
 ConditionsComfort  
Time TempWeatherWind HumidityBarometerVisibility
12:00 am
Sat, Dec 3
N/AOvercast.37 mphN/AN/A1 mi
11:00 pm
Fri, Dec 2
62 °FCool.15 mph91%30.06 "HgN/A
10:00 pm62 °FMild.15 mph87%30.05 "HgN/A
9:00 pm62 °FCool.16 mph94%30.04 "HgN/A
8:00 pm63 °FMild.14 mph89%30.03 "HgN/A
7:00 pm63 °FMild.15 mph92%30.01 "HgN/A
6:00 pm63 °FMild.16 mph88%30.00 "HgN/A
5:00 pm62 °FCool.21 mph95%29.99 "HgN/A
4:00 pm64 °FMild.18 mph86%29.99 "HgN/A
3:00 pm64 °FDrizzle. Overcast.24 mph86%30.00 "Hg1 mi
2:00 pm65 °FOvercast.20 mph81%30.01 "Hg7 mi
1:00 pm67 °FOvercast.20 mph77%30.02 "Hg6 mi
12:00 pm64 °FSprinkles. Low clouds.20 mph88%30.05 "Hg2 mi
8:00 am62 °FCool.21 mph89%30.05 "HgN/A
5:00 am61 °FCool.17 mph97%30.02 "HgN/A
4:00 am62 °FCool.20 mph91%30.01 "HgN/A
3:00 am62 °FCool.20 mph90%30.02 "HgN/A
2:00 am62 °FMild.17 mph87%30.03 "HgN/A
Weather by CustomWeather, © 2016

See weather overviewHow to use our weather pages